Regional Weather Roundup
Issued by NWS

Home | Current Version | Previous Version | Graphics & Text | Print | Product List | Glossary Off
Versions: 1 2 3 4 5 6 7 8 9 10 11 12 13 14 15 16 17 18 19 20 21 22 23 24 25 26 27 28 29 30 31 32 33 34 35 36 37 38 39 40 41 42 43 44 45 46 47 48 49 50

000
ASUS45 KSLC 230110
RWRUT

UTAH REGIONAL WEATHER ROUNDUP
NATIONAL WEATHER SERVICE SALT LAKE CITY UT
700 PM MDT FRI MAY 22 2015

UTZ001>011-023>025-230200-

NORTHERN UTAH

CITY           SKY/WX    TMP DP  RH WIND       PRES   REMARKS
BRIGHAM CITY   PTSUNNY   64  39  40 S7        29.86F
HILL AFB       CLOUDY    60  45  56 E10       29.88S
LOGAN          CLOUDY    56  44  64 E10       29.88S
OGDEN          PTSUNNY   62  41  46 CALM      29.86F
PROVO AIRPORT  PTSUNNY   61  39  44 CALM      29.89R
SALT LAKE CITY CLOUDY    62  39  42 E7        29.86S
VERNAL         CLOUDY    54  39  57 W14       29.93F
WENDOVER       CLOUDY    63  43  48 S10       29.86S
HEBER CITY     CLOUDY    54  36  50 CALM      29.92S
WEST JORDAN    CLOUDY    59  43  55 NE3       29.89S

$$

UTZ012>022-026-027-230200-

SOUTHERN/CENTRAL UTAH

CITY           SKY/WX    TMP DP  RH WIND       PRES   REMARKS
BLANDING       PTSUNNY   61  32  33 E8        29.95R
BRYCE CANYON   CLOUDY    44  34  67 CALM      29.98F
CEDAR CITY     CLOUDY    46  40  79 W9        29.96R
DELTA          CLOUDY    54  43  66 E10       29.90S
HANKSVILLE     MOSUNNY   70  21  16 SW8       29.79S
MILFORD        LGT RAIN  48  42  80 S12G22    29.95R
MOAB/CYNLANDS  MOSUNNY   69  30  23 VRB7      29.77S
PRICE          CLOUDY    55  37  50 SE14      29.93R
ST GEORGE      CLOUDY    59  39  47 SE8       29.93F
KANAB          CLOUDY    46  39  76 S21       30.01

$$

REGIONAL REPORTS     COLORADO/ARIZONA

CITY           SKY/WX    TMP DP  RH WIND       PRES   REMARKS
CRAIG, CO      PTSUNNY   52  41  66 E9        29.96F
GRAND JUNCTION MOSUNNY   66  37  34 N6        29.83F
RIFLE          PTSUNNY   59  40  49 S9        29.93R
MONTROSE       CLOUDY    57  35  43 S21G28    29.98R
CORTEZ         PTSUNNY   53  45  74 NE9G20    29.93F
PAGE, AZ       CLOUDY    62  34  35 SW9G18    29.89S
GRAND CANYON   CLOUDY    40  37  89 NW6       30.02
KINGMAN        PTSUNNY   62  36  37 S10G20    29.92S
FLAGSTAFF      PTSUNNY   47  29  49 SW22G31   30.00R

$$

REGIONAL REPORTS    NEVADA/IDAHO/WYOMING

CITY           SKY/WX    TMP DP  RH WIND       PRES   REMARKS
LAS VEGAS, NV  PTSUNNY   69  41  36 NW15G23   29.80S
ELY            LGT RAIN  48  40  73 E9        29.95S
ELKO           CLOUDY    55  42  61 SW6       29.92R
POCATELLO, ID  PTSUNNY   62  43  49 S6        29.86F
BURLEY         PTSUNNY   58  46  64 CALM      29.85S
EVANSTON, WY   LGT RAIN  44  40  85 NE6       29.98S
ROCK SPRINGS   CLOUDY    50  38  63 N3        29.95R
KEMMERER       RAIN      41  37  87 CALM      29.99S

$$



USA.gov is the U.S. government's official web portal to all federal, state and local government web resources and services.